| time (UTC) | temp F | wind direction | speed MPH | gust MPH | rain 1hr in | rain 24hr in | rain mn in | humidity % | barometer mb |
| 20260502130543 | 39 | 317 | 0.0 | 6.0 | 0.00 | 0.10 | 0.00 | 87 | 1016.0 |
| 20260502123540 | 37 | 307 | 1.0 | 5.0 | 0.00 | 0.10 | 0.00 | 91 | 1015.7 |
| 20260502123035 | 37 | 292 | 1.0 | 5.0 | 0.00 | 0.10 | 0.00 | 91 | 1015.8 |
| 20260502122540 | 37 | 291 | 2.0 | 7.0 | 0.00 | 0.10 | 0.00 | 91 | 1015.7 |
| 20260502122054 | 37 | 260 | 2.0 | 7.0 | 0.00 | 0.10 | 0.00 | 91 | 1015.6 |
| 20260502121556 | 36 | 285 | 2.0 | 6.0 | 0.00 | 0.10 | 0.00 | 92 | 1015.6 |
| 20260502121055 | 36 | 299 | 2.0 | 6.0 | 0.00 | 0.10 | 0.00 | 93 | 1015.6 |
| 20260502120519 | 36 | 281 | 2.0 | 6.0 | 0.00 | 0.10 | 0.00 | 93 | 1015.7 |
| 20260502115512 | 35 | 291 | 1.0 | 4.0 | 0.00 | 0.10 | 0.00 | 93 | 1015.8 |
| 20260502115023 | 35 | 273 | 1.0 | 5.0 | 0.00 | 0.10 | 0.00 | 93 | 1015.8 |
| 20260502114536 | 35 | 285 | 1.0 | 5.0 | 0.00 | 0.10 | 0.00 | 93 | 1015.7 |
| 20260502114020 | 35 | 269 | 0.0 | 3.0 | 0.00 | 0.10 | 0.00 | 93 | 1015.7 |
| 20260502113537 | 35 | 259 | 2.0 | 5.0 | 0.00 | 0.10 | 0.00 | 93 | 1015.6 |
| 20260502113050 | 35 | 274 | 1.0 | 4.0 | 0.00 | 0.10 | 0.00 | 93 | 1015.7 |
| 20260502112557 | 35 | 269 | 1.0 | 3.0 | 0.00 | 0.10 | 0.00 | 93 | 1015.6 |
| 20260502112044 | 35 | 269 | 0.0 | 2.0 | 0.00 | 0.10 | 0.00 | 93 | 1015.7 |
| 20260502111559 | 35 | 269 | 0.0 | 2.0 | 0.00 | 0.10 | 0.00 | 93 | 1015.5 |
| 20260502111500 | 35 | 269 | 0.0 | 2.0 | 0.00 | 0.10 | 0.00 | 93 | 1015.6 |
| 20260502111010 | 35 | 269 | 0.0 | 2.0 | 0.00 | 0.10 | 0.00 | 93 | 1015.6 |
| 20260502110557 | 35 | 269 | 0.0 | 1.0 | 0.00 | 0.10 | 0.00 | 93 | 1015.5 |
| 20260502110502 | 35 | 269 | 0.0 | 1.0 | 0.00 | 0.10 | 0.00 | 93 | 1015.5 |
| 20260502110014 | 35 | 269 | 0.0 | 4.0 | 0.00 | 0.10 | 0.00 | 93 | 1015.6 |
| 20260502105527 | 35 | 269 | 0.0 | 4.0 | 0.00 | 0.10 | 0.00 | 92 | 1015.6 |
| 20260502105013 | 35 | 269 | 0.0 | 2.0 | 0.00 | 0.10 | 0.00 | 92 | 1015.6 |
| 20260502104529 | 35 | 269 | 0.0 | 2.0 | 0.00 | 0.10 | 0.00 | 92 | 1015.6 |
| 20260502104036 | 36 | 269 | 0.0 | 4.0 | 0.00 | 0.10 | 0.00 | 92 | 1015.5 |
| 20260502103555 | 36 | 269 | 0.0 | 4.0 | 0.00 | 0.10 | 0.00 | 93 | 1015.5 |
| 20260502103042 | 36 | 268 | 1.0 | 3.0 | 0.00 | 0.10 | 0.00 | 92 | 1015.5 |
| 20260502102553 | 36 | 254 | 1.0 | 4.0 | 0.00 | 0.10 | 0.00 | 92 | 1015.3 |
| 20260502102013 | 36 | 251 | 1.0 | 4.0 | 0.00 | 0.10 | 0.00 | 92 | 1015.4 |
| 20260502101556 | 36 | 252 | 1.0 | 4.0 | 0.00 | 0.10 | 0.00 | 93 | 1015.4 |
| 20260502101010 | 36 | 250 | 0.0 | 4.0 | 0.00 | 0.10 | 0.00 | 93 | 1015.4 |
| 20260502100518 | 36 | 255 | 1.0 | 4.0 | 0.00 | 0.10 | 0.00 | 92 | 1015.5 |
| 20260502091056 | 37 | 254 | 1.0 | 5.0 | 0.00 | 0.10 | 0.00 | 93 | 1015.8 |
| 20260502090546 | 37 | 254 | 1.0 | 6.0 | 0.00 | 0.10 | 0.00 | 93 | 1015.7 |
| 20260502071528 | 39 | 254 | 1.0 | 2.0 | 0.00 | 0.10 | 0.00 | 93 | 1015.2 |
| 20260502071031 | 39 | 254 | 0.0 | 2.0 | 0.00 | 0.10 | 0.00 | 93 | 1015.2 |
| 20260502070533 | 39 | 254 | 0.0 | 1.0 | 0.00 | 0.10 | 0.00 | 93 | 1015.2 |
| 20260502070101 | 39 | 254 | 0.0 | 2.0 | 0.00 | 0.10 | 0.00 | 93 | 1015.4 |
| 20260502065558 | 39 | 254 | 0.0 | 2.0 | 0.00 | 0.10 | 0.00 | 93 | 1015.5 |
| 20260502065048 | 39 | 259 | 1.0 | 2.0 | 0.00 | 0.10 | 0.00 | 93 | 1015.5 |
| 20260502064505 | 39 | 269 | 1.0 | 2.0 | 0.00 | 0.10 | 0.00 | 93 | 1015.5 |
| 20260502064014 | 39 | 209 | 0.0 | 2.0 | 0.00 | 0.10 | 0.00 | 93 | 1015.5 |
| 20260502063506 | 39 | 199 | 0.0 | 1.0 | 0.00 | 0.10 | 0.00 | 92 | 1015.5 |
| 20260502063015 | 39 | 199 | 0.0 | 1.0 | 0.00 | 0.10 | 0.00 | 92 | 1015.5 |
| 20260502062530 | 39 | 205 | 0.0 | 2.0 | 0.00 | 0.10 | 0.00 | 92 | 1015.5 |
| 20260502062039 | 39 | 211 | 0.0 | 2.0 | 0.00 | 0.10 | 0.00 | 92 | 1015.5 |
| 20260502061533 | 39 | 246 | 0.0 | 2.0 | 0.00 | 0.10 | 0.00 | 92 | 1015.4 |
| 20260502061046 | 39 | 246 | 0.0 | 2.0 | 0.00 | 0.10 | 0.00 | 92 | 1015.5 |
| 20260502060502 | 39 | 246 | 0.0 | 2.0 | 0.00 | 0.10 | 0.00 | 92 | 1015.8 |
| 20260502060052 | 39 | 246 | 0.0 | 2.0 | 0.00 | 0.10 | 0.00 | 92 | 1015.6 |
| 20260502055506 | 39 | 246 | 0.0 | 2.0 | 0.00 | 0.10 | 0.00 | 91 | 1015.7 |
| 20260502055017 | 39 | 246 | 0.0 | 4.0 | 0.00 | 0.10 | 0.00 | 91 | 1015.7 |
| 20260502054520 | 39 | 246 | 0.0 | 4.0 | 0.00 | 0.10 | 0.00 | 91 | 1015.8 |
| 20260502054016 | 39 | 246 | 0.0 | 1.0 | 0.00 | 0.10 | 0.00 | 91 | 1015.8 |
| 20260502053532 | 39 | 246 | 0.0 | 1.0 | 0.00 | 0.10 | 0.00 | 90 | 1015.8 |
| 20260502053043 | 40 | 246 | 0.0 | 1.0 | 0.00 | 0.10 | 0.00 | 91 | 1015.8 |
| 20260502052536 | 40 | 246 | 0.0 | 1.0 | 0.00 | 0.10 | 0.00 | 90 | 1015.9 |
| 20260502052049 | 40 | 246 | 0.0 | 1.0 | 0.00 | 0.10 | 0.00 | 90 | 1016.0 |
| 20260502051505 | 40 | 246 | 0.0 | 0.0 | 0.00 | 0.10 | 0.00 | 90 | 1015.9 |
| 20260502051055 | 40 | 246 | 0.0 | 0.0 | 0.00 | 0.10 | 0.00 | 90 | 1015.9 |
| 20260502050504 | 40 | 246 | 0.0 | 0.0 | 0.00 | 0.10 | 0.00 | 90 | 1015.9 |
| 20260502050017 | 40 | 246 | 0.0 | 0.0 | 0.00 | 0.10 | 0.00 | 90 | 1016.0 |
| 20260502045530 | 41 | 246 | 0.0 | 0.0 | 0.00 | 0.10 | 0.00 | 90 | 1016.0 |
| 20260502045021 | 41 | 246 | 0.0 | 0.0 | 0.00 | 0.10 | 0.00 | 90 | 1016.0 |
| 20260502044531 | 41 | 246 | 0.0 | 1.0 | 0.00 | 0.10 | 0.00 | 90 | 1016.1 |
| 20260502044044 | 41 | 246 | 0.0 | 1.0 | 0.00 | 0.10 | 0.00 | 90 | 1016.1 |
| 20260502043532 | 41 | 246 | 0.0 | 0.0 | 0.00 | 0.10 | 0.00 | 91 | 1016.1 |
| 20260502043048 | 41 | 246 | 0.0 | 0.0 | 0.00 | 0.10 | 0.00 | 91 | 1016.1 |
| 20260502042558 | 41 | 246 | 0.0 | 1.0 | 0.00 | 0.10 | 0.00 | 91 | 1016.1 |
| 20260502042111 | 41 | 246 | 0.0 | 1.0 | 0.00 | 0.10 | 0.00 | 91 | 1015.9 |
| 20260502041559 | 41 | 246 | 0.0 | 1.0 | 0.00 | 0.10 | 0.00 | 91 | 1016.0 |
| 20260502041014 | 41 | 246 | 0.0 | 2.0 | 0.00 | 0.10 | 0.00 | 91 | 1016.0 |
| 20260502040524 | 41 | 246 | 0.0 | 2.0 | 0.00 | 0.10 | 0.00 | 91 | 1016.1 |
| 20260502040016 | 41 | 246 | 0.0 | 1.0 | 0.00 | 0.10 | 0.10 | 91 | 1016.1 |
| 20260502035523 | 41 | 246 | 0.0 | 1.0 | 0.00 | 0.10 | 0.10 | 91 | 1016.1 |
| 20260502035038 | 41 | 271 | 0.0 | 2.0 | 0.00 | 0.10 | 0.10 | 91 | 1016.2 |
| 20260502034526 | 41 | 271 | 0.0 | 2.0 | 0.00 | 0.10 | 0.10 | 91 | 1016.2 |
| 20260502034040 | 41 | 271 | 0.0 | 1.0 | 0.00 | 0.10 | 0.10 | 91 | 1016.3 |
| 20260502033550 | 41 | 271 | 0.0 | 1.0 | 0.00 | 0.10 | 0.10 | 91 | 1016.1 |
| 20260502033003 | 41 | 275 | 0.0 | 2.0 | 0.00 | 0.10 | 0.10 | 91 | 1016.2 |
| 20260502032549 | 41 | 271 | 0.0 | 2.0 | 0.00 | 0.10 | 0.10 | 91 | 1016.1 |
| 20260502032005 | 41 | 305 | 0.0 | 2.0 | 0.00 | 0.10 | 0.10 | 90 | 1016.0 |
| 20260502031516 | 41 | 305 | 0.0 | 2.0 | 0.00 | 0.10 | 0.10 | 90 | 1015.8 |
| 20260502031007 | 41 | 305 | 0.0 | 0.0 | 0.00 | 0.10 | 0.10 | 91 | 1015.8 |
| 20260502030521 | 41 | 305 | 0.0 | 0.0 | 0.00 | 0.10 | 0.10 | 91 | 1015.7 |
| 20260502030034 | 41 | 305 | 0.0 | 0.0 | 0.00 | 0.10 | 0.10 | 90 | 1015.8 |
| 20260502025535 | 41 | 305 | 0.0 | 0.0 | 0.00 | 0.10 | 0.10 | 90 | 1015.9 |
| 20260502025035 | 41 | 305 | 0.0 | 0.0 | 0.00 | 0.10 | 0.10 | 90 | 1015.9 |
| 20260502024545 | 41 | 305 | 0.0 | 0.0 | 0.00 | 0.10 | 0.10 | 90 | 1015.9 |
| 20260502024003 | 40 | 305 | 0.0 | 0.0 | 0.00 | 0.10 | 0.10 | 89 | 1016.0 |
| 20260502023549 | 40 | 305 | 0.0 | 0.0 | 0.00 | 0.10 | 0.10 | 89 | 1015.9 |
| 20260502023007 | 41 | 305 | 0.0 | 0.0 | 0.00 | 0.10 | 0.10 | 88 | 1015.6 |
| 20260502022516 | 41 | 305 | 0.0 | 0.0 | 0.00 | 0.10 | 0.10 | 89 | 1015.6 |
| 20260502022008 | 41 | 305 | 0.0 | 0.0 | 0.00 | 0.10 | 0.10 | 88 | 1015.5 |
| 20260502021519 | 41 | 305 | 0.0 | 0.0 | 0.00 | 0.10 | 0.10 | 88 | 1015.6 |
| 20260502021034 | 41 | 305 | 0.0 | 1.0 | 0.00 | 0.10 | 0.10 | 87 | 1015.6 |
| 20260502020543 | 41 | 305 | 0.0 | 1.0 | 0.00 | 0.10 | 0.10 | 87 | 1015.7 |
| 20260502020033 | 41 | 305 | 0.0 | 0.0 | 0.00 | 0.10 | 0.10 | 86 | 1015.7 |
| 20260502015544 | 41 | 305 | 0.0 | 0.0 | 0.00 | 0.10 | 0.10 | 86 | 1015.7 |
| 20260502015058 | 41 | 305 | 0.0 | 0.0 | 0.00 | 0.10 | 0.10 | 85 | 1015.6 |
| 20260502014549 | 41 | 305 | 0.0 | 0.0 | 0.00 | 0.10 | 0.10 | 85 | 1015.6 |
| 20260502014009 | 42 | 305 | 0.0 | 0.0 | 0.00 | 0.10 | 0.10 | 85 | 1015.4 |
| 20260502013522 | 42 | 305 | 0.0 | 0.0 | 0.00 | 0.10 | 0.10 | 85 | 1015.3 |
| 20260502013021 | 42 | 305 | 0.0 | 0.0 | 0.00 | 0.10 | 0.10 | 85 | 1015.3 |
| 20260502012524 | 42 | 305 | 0.0 | 0.0 | 0.00 | 0.10 | 0.10 | 84 | 1015.1 |
| 20260502012035 | 43 | 305 | 0.0 | 0.0 | 0.00 | 0.10 | 0.10 | 84 | 1014.9 |
| 20260502011547 | 43 | 305 | 0.0 | 0.0 | 0.00 | 0.10 | 0.10 | 84 | 1014.9 |
| 20260502011035 | 43 | 305 | 0.0 | 0.0 | 0.00 | 0.10 | 0.10 | 85 | 1014.8 |
| 20260502010551 | 43 | 305 | 0.0 | 0.0 | 0.00 | 0.10 | 0.10 | 85 | 1014.6 |
| 20260502010017 | 44 | 305 | 0.0 | 0.0 | 0.00 | 0.10 | 0.10 | 85 | 1014.6 |
| 20260502005605 | 44 | 305 | 0.0 | 0.0 | 0.00 | 0.10 | 0.10 | 85 | 1014.4 |
| 20260502005012 | 44 | 305 | 0.0 | 0.0 | 0.00 | 0.10 | 0.10 | 84 | 1014.7 |
| 20260502004522 | 44 | 305 | 0.0 | 0.0 | 0.00 | 0.10 | 0.10 | 84 | 1014.6 |
| 20260502004035 | 45 | 305 | 0.0 | 0.0 | 0.00 | 0.10 | 0.10 | 84 | 1014.6 |
| 20260502003525 | 45 | 305 | 0.0 | 0.0 | 0.00 | 0.10 | 0.10 | 84 | 1014.6 |
| 20260502003035 | 45 | 305 | 0.0 | 0.0 | 0.00 | 0.10 | 0.10 | 83 | 1014.6 |
| 20260502002555 | 45 | 305 | 0.0 | 0.0 | 0.00 | 0.10 | 0.10 | 82 | 1014.8 |
| 20260502002039 | 45 | 305 | 0.0 | 1.0 | 0.00 | 0.10 | 0.10 | 82 | 1014.6 |
| 20260502001556 | 46 | 305 | 0.0 | 1.0 | 0.00 | 0.10 | 0.10 | 82 | 1014.4 |
| 20260502001007 | 46 | 317 | 0.0 | 2.0 | 0.00 | 0.10 | 0.10 | 82 | 1014.3 |
| 20260502000508 | 46 | 325 | 0.0 | 2.0 | 0.00 | 0.10 | 0.10 | 81 | 1014.2 |
| 20260502000014 | 46 | 319 | 0.0 | 4.0 | 0.00 | 0.10 | 0.10 | 80 | 1014.0 |
| 20260501235524 | 46 | 309 | 1.0 | 3.0 | 0.00 | 0.10 | 0.10 | 80 | 1013.8 |
| 20260501235038 | 46 | 316 | 0.0 | 2.0 | 0.00 | 0.10 | 0.10 | 80 | 1013.6 |
| 20260501234612 | 46 | 333 | 0.0 | 4.0 | 0.00 | 0.10 | 0.10 | 80 | 1013.6 |
| 20260501234004 | 47 | 287 | 1.0 | 4.0 | 0.00 | 0.10 | 0.10 | 80 | 1013.5 |
| 20260501233600 | 46 | 284 | 0.0 | 5.0 | 0.00 | 0.10 | 0.10 | 80 | 1013.5 |
| 20260501233500 | 46 | 282 | 0.0 | 5.0 | 0.00 | 0.10 | 0.10 | 80 | 1013.5 |
| 20260501233007 | 46 | 317 | 1.0 | 6.0 | 0.00 | 0.10 | 0.10 | 79 | 1013.5 |
| 20260501232521 | 47 | 317 | 2.0 | 8.0 | 0.00 | 0.10 | 0.10 | 80 | 1013.5 |
| 20260501232033 | 47 | 312 | 1.0 | 8.0 | 0.00 | 0.10 | 0.10 | 79 | 1013.6 |
| 20260501231526 | 47 | 337 | 1.0 | 7.0 | 0.00 | 0.10 | 0.10 | 80 | 1013.5 |
| 20260501231033 | 47 | 307 | 2.0 | 9.0 | 0.00 | 0.10 | 0.10 | 79 | 1013.5 |
| 20260501230550 | 47 | 320 | 3.0 | 9.0 | 0.00 | 0.10 | 0.10 | 78 | 1013.4 |
| 20260501230106 | 47 | 338 | 3.0 | 9.0 | 0.00 | 0.10 | 0.10 | 78 | 1013.3 |
| 20260501225546 | 47 | 269 | 3.0 | 7.0 | 0.00 | 0.10 | 0.10 | 78 | 1013.3 |
| 20260501225059 | 47 | 315 | 1.0 | 9.0 | 0.00 | 0.10 | 0.10 | 79 | 1013.2 |
| 20260501224514 | 47 | 267 | 4.0 | 11.0 | 0.00 | 0.10 | 0.10 | 78 | 1013.0 |
| 20260501224053 | 47 | 283 | 4.0 | 9.0 | 0.00 | 0.10 | 0.10 | 78 | 1013.0 |
| 20260501223603 | 48 | 325 | 3.0 | 11.0 | 0.00 | 0.10 | 0.10 | 78 | 1013.0 |
| 20260501223029 | 48 | 332 | 5.0 | 9.0 | 0.00 | 0.10 | 0.10 | 79 | 1013.0 |
| 20260501222543 | 48 | 339 | 4.0 | 9.0 | 0.00 | 0.10 | 0.10 | 80 | 1013.0 |
| 20260501222052 | 48 | 302 | 4.0 | 13.0 | 0.00 | 0.10 | 0.10 | 79 | 1013.1 |
| 20260501221511 | 48 | 319 | 6.0 | 13.0 | 0.00 | 0.10 | 0.10 | 76 | 1012.9 |
| 20260501221047 | 48 | 339 | 5.0 | 16.0 | 0.00 | 0.10 | 0.10 | 78 | 1012.9 |
| 20260501220559 | 49 | 262 | 6.0 | 16.0 | 0.00 | 0.10 | 0.10 | 76 | 1013.0 |
| 20260501220040 | 49 | 286 | 6.0 | 15.0 | 0.00 | 0.10 | 0.10 | 76 | 1012.9 |
| 20260501215545 | 50 | 20 | 8.0 | 15.0 | 0.00 | 0.10 | 0.10 | 75 | 1012.7 |
| 20260501215059 | 50 | 286 | 6.0 | 19.0 | 0.00 | 0.10 | 0.10 | 75 | 1012.5 |
| 20260501215002 | 50 | 317 | 7.0 | 19.0 | 0.00 | 0.10 | 0.10 | 74 | 1012.6 |
| 20260501214524 | 51 | 276 | 7.0 | 19.0 | 0.00 | 0.10 | 0.10 | 74 | 1012.4 |
| 20260501214025 | 52 | 271 | 5.0 | 16.0 | 0.00 | 0.10 | 0.10 | 73 | 1012.1 |
| 20260501213541 | 52 | 305 | 6.0 | 24.0 | 0.00 | 0.10 | 0.10 | 72 | 1011.9 |
| 20260501213058 | 52 | 232 | 6.0 | 18.0 | 0.00 | 0.10 | 0.10 | 73 | 1011.8 |
| 20260501212507 | 52 | 285 | 6.0 | 14.0 | 0.00 | 0.10 | 0.10 | 73 | 1011.7 |
| 20260501212019 | 52 | 277 | 7.0 | 18.0 | 0.00 | 0.10 | 0.10 | 73 | 1011.5 |
| 20260501211534 | 53 | 267 | 9.0 | 18.0 | 0.00 | 0.10 | 0.10 | 72 | 1011.6 |
| 20260501211043 | 54 | 325 | 7.0 | 19.0 | 0.00 | 0.10 | 0.10 | 74 | 1011.4 |
| 20260501210559 | 53 | 260 | 6.0 | 19.0 | 0.00 | 0.10 | 0.10 | 78 | 1011.3 |
| 20260501210503 | 53 | 259 | 6.0 | 19.0 | 0.00 | 0.10 | 0.10 | 80 | 1011.2 |
| 20260501210011 | 53 | 279 | 5.0 | 15.0 | 0.00 | 0.10 | 0.10 | 81 | 1011.1 |
| 20260501205525 | 52 | 309 | 6.0 | 15.0 | 0.00 | 0.10 | 0.10 | 80 | 1010.9 |
| 20260501205035 | 52 | 293 | 5.0 | 14.0 | 0.00 | 0.10 | 0.10 | 84 | 1010.9 |
| 20260501204550 | 52 | 327 | 5.0 | 11.0 | 0.00 | 0.10 | 0.10 | 87 | 1010.7 |
| 20260501204101 | 51 | 292 | 3.0 | 11.0 | 0.01 | 0.10 | 0.10 | 88 | 1010.9 |
| 20260501204001 | 51 | 311 | 5.0 | 11.0 | 0.01 | 0.10 | 0.10 | 87 | 1010.8 |
| 20260501203515 | 51 | 269 | 6.0 | 13.0 | 0.01 | 0.10 | 0.10 | 87 | 1011.0 |
| 20260501203025 | 51 | 247 | 4.0 | 13.0 | 0.01 | 0.10 | 0.10 | 85 | 1010.9 |
| 20260501202541 | 51 | 286 | 4.0 | 10.0 | 0.01 | 0.10 | 0.10 | 87 | 1010.8 |
| 20260501202056 | 51 | 249 | 2.0 | 8.0 | 0.01 | 0.10 | 0.10 | 86 | 1010.7 |
| 20260501201508 | 51 | 267 | 2.0 | 9.0 | 0.01 | 0.10 | 0.10 | 87 | 1010.6 |
| 20260501201017 | 51 | 213 | 2.0 | 11.0 | 0.01 | 0.10 | 0.10 | 87 | 1010.7 |
| 20260501200532 | 51 | 261 | 3.0 | 13.0 | 0.01 | 0.10 | 0.10 | 89 | 1010.7 |
| 20260501200044 | 51 | 259 | 5.0 | 13.0 | 0.01 | 0.10 | 0.10 | 91 | 1010.8 |
| 20260501195558 | 50 | 267 | 3.0 | 9.0 | 0.01 | 0.10 | 0.10 | 94 | 1010.9 |
| 20260501195013 | 49 | 177 | 3.0 | 10.0 | 0.01 | 0.10 | 0.10 | 92 | 1010.9 |
| 20260501194528 | 49 | 304 | 2.0 | 9.0 | 0.01 | 0.10 | 0.10 | 92 | 1010.9 |
| 20260501194035 | 48 | 118 | 2.0 | 10.0 | 0.00 | 0.09 | 0.09 | 91 | 1011.0 |
| 20260501193544 | 48 | 234 | 3.0 | 10.0 | 0.00 | 0.09 | 0.09 | 90 | 1011.2 |
| 20260501193001 | 48 | 200 | 3.0 | 10.0 | 0.01 | 0.09 | 0.09 | 90 | 1011.3 |
| 20260501192547 | 48 | 211 | 3.0 | 9.0 | 0.01 | 0.09 | 0.09 | 90 | 1011.2 |
| 20260501192003 | 49 | 252 | 3.0 | 12.0 | 0.02 | 0.09 | 0.09 | 90 | 1011.2 |
| 20260501191514 | 49 | 271 | 2.0 | 12.0 | 0.02 | 0.09 | 0.09 | 90 | 1011.3 |
| 20260501191059 | 49 | 223 | 4.0 | 8.0 | 0.03 | 0.09 | 0.09 | 91 | 1011.3 |
| 20260501191004 | 49 | 251 | 5.0 | 8.0 | 0.03 | 0.09 | 0.09 | 91 | 1011.3 |
| 20260501190511 | 49 | 223 | 1.0 | 10.0 | 0.04 | 0.09 | 0.09 | 91 | 1011.2 |
| 20260501190038 | 48 | 240 | 4.0 | 9.0 | 0.04 | 0.09 | 0.09 | 90 | 1011.1 |
| 20260501185525 | 49 | 275 | 2.0 | 8.0 | 0.04 | 0.09 | 0.09 | 91 | 1011.2 |
| 20260501185025 | 49 | 259 | 3.0 | 8.0 | 0.05 | 0.09 | 0.09 | 91 | 1011.3 |
| 20260501184535 | 49 | 144 | 1.0 | 8.0 | 0.05 | 0.09 | 0.09 | 91 | 1011.2 |
| 20260501184051 | 48 | 273 | 3.0 | 8.0 | 0.05 | 0.09 | 0.09 | 91 | 1011.2 |
| 20260501183537 | 48 | 273 | 4.0 | 9.0 | 0.05 | 0.09 | 0.09 | 91 | 1011.2 |
| 20260501183050 | 48 | 242 | 3.0 | 9.0 | 0.04 | 0.08 | 0.08 | 90 | 1011.1 |
| 20260501182503 | 48 | 266 | 2.0 | 8.0 | 0.05 | 0.08 | 0.08 | 90 | 1011.2 |
| 20260501182057 | 48 | 263 | 1.0 | 8.0 | 0.05 | 0.08 | 0.08 | 90 | 1011.0 |
| 20260501181628 | 48 | 265 | 0.0 | 7.0 | 0.05 | 0.07 | 0.07 | 90 | 1011.1 |
| 20260501181501 | 48 | 192 | 0.0 | 7.0 | 0.04 | 0.06 | 0.07 | 90 | 1011.2 |
| 20260501181015 | 48 | 242 | 4.0 | 7.0 | 0.04 | 0.06 | 0.06 | 89 | 1010.9 |
| 20260501180525 | 49 | 198 | 1.0 | 4.0 | 0.03 | 0.05 | 0.05 | 89 | 1011.1 |
| 20260501180018 | 49 | 254 | 0.0 | 4.0 | 0.03 | 0.05 | 0.05 | 89 | 1010.9 |
| 20260501175523 | 49 | 165 | 0.0 | 0.0 | 0.02 | 0.04 | 0.05 | 89 | 1010.8 |
| 20260501175036 | 49 | 178 | 0.0 | 1.0 | 0.03 | 0.04 | 0.04 | 88 | 1010.8 |
| 20260501174527 | 49 | 178 | 0.0 | 4.0 | 0.03 | 0.04 | 0.04 | 88 | 1010.9 |
| 20260501174041 | 49 | 181 | 0.0 | 3.0 | 0.03 | 0.04 | 0.04 | 88 | 1010.9 |
| 20260501173551 | 49 | 180 | 0.0 | 4.0 | 0.03 | 0.04 | 0.04 | 88 | 1011.1 |
| 20260501173116 | 49 | 188 | 0.0 | 4.0 | 0.03 | 0.04 | 0.04 | 87 | 1011.1 |
| 20260501172557 | 49 | 158 | 0.0 | 5.0 | 0.02 | 0.03 | 0.03 | 86 | 1011.0 |
| 20260501172013 | 49 | 235 | 0.0 | 8.0 | 0.02 | 0.03 | 0.03 | 86 | 1011.2 |
| 20260501171525 | 49 | 272 | 1.0 | 3.0 | 0.01 | 0.02 | 0.02 | 87 | 1011.3 |
| 20260501171019 | 49 | 245 | 1.0 | 5.0 | 0.02 | 0.02 | 0.02 | 87 | 1011.2 |
| 20260501170529 | 49 | 250 | 0.0 | 7.0 | 0.02 | 0.02 | 0.02 | 85 | 1011.1 |
| 20260501170044 | 49 | 238 | 1.0 | 7.0 | 0.02 | 0.02 | 0.02 | 84 | 1011.3 |
| 20260501165535 | 49 | 218 | 1.0 | 6.0 | 0.02 | 0.02 | 0.02 | 85 | 1011.2 |
| 20260501165045 | 49 | 262 | 0.0 | 7.0 | 0.01 | 0.01 | 0.01 | 83 | 1011.2 |
| 20260501164558 | 50 | 257 | 3.0 | 9.0 | 0.01 | 0.01 | 0.01 | 82 | 1011.3 |
| 20260501164015 | 50 | 263 | 2.0 | 9.0 | 0.01 | 0.01 | 0.01 | 81 | 1011.3 |
| 20260501163513 | 50 | 273 | 1.0 | 8.0 | 0.01 | 0.01 | 0.01 | 79 | 1011.3 |
| 20260501163021 | 50 | 261 | 0.0 | 9.0 | 0.01 | 0.01 | 0.01 | 79 | 1011.3 |
| 20260501162531 | 51 | 304 | 1.0 | 9.0 | 0.01 | 0.01 | 0.01 | 77 | 1011.1 |
| 20260501162022 | 51 | 276 | 2.0 | 8.0 | 0.01 | 0.01 | 0.01 | 77 | 1011.1 |
| 20260501161533 | 52 | 245 | 0.0 | 2.0 | 0.01 | 0.01 | 0.01 | 82 | 1011.2 |
| 20260501161047 | 52 | 196 | 0.0 | 2.0 | 0.00 | 0.00 | 0.00 | 80 | 1011.2 |
| 20260501160555 | 52 | 131 | 0.0 | 1.0 | 0.00 | 0.00 | 0.00 | 75 | 1011.0 |
| 20260501160047 | 52 | 210 | 0.0 | 4.0 | 0.00 | 0.00 | 0.00 | 74 | 1011.1 |
| 20260501155559 | 52 | 257 | 0.0 | 4.0 | 0.00 | 0.00 | 0.00 | 76 | 1011.1 |
| 20260501155507 | 52 | 258 | 0.0 | 4.0 | 0.00 | 0.00 | 0.00 | 75 | 1011.2 |
| 20260501155015 | 52 | 243 | 0.0 | 0.0 | 0.00 | 0.00 | 0.00 | 74 | 1011.1 |
| 20260501154507 | 52 | 243 | 0.0 | 1.0 | 0.00 | 0.00 | 0.00 | 74 | 1011.2 |
| 20260501154017 | 52 | 243 | 0.0 | 5.0 | 0.00 | 0.00 | 0.00 | 73 | 1011.2 |
| 20260501153532 | 52 | 228 | 1.0 | 5.0 | 0.00 | 0.00 | 0.00 | 72 | 1011.2 |
| 20260501153044 | 52 | 177 | 0.0 | 4.0 | 0.00 | 0.00 | 0.00 | 72 | 1011.2 |
| 20260501152536 | 52 | 251 | 0.0 | 7.0 | 0.00 | 0.00 | 0.00 | 73 | 1011.3 |
| 20260501152022 | 52 | 236 | 0.0 | 7.0 | 0.00 | 0.00 | 0.00 | 72 | 1011.4 |
| 20260501151514 | 52 | 91 | 2.0 | 7.0 | 0.00 | 0.00 | 0.00 | 73 | 1011.3 |
| 20260501151025 | 52 | 140 | 1.0 | 7.0 | 0.00 | 0.00 | 0.00 | 69 | 1011.3 |
| 20260501150535 | 52 | 122 | 0.0 | 10.0 | 0.00 | 0.00 | 0.00 | 69 | 1011.4 |
| 20260501145602 | 52 | 263 | 3.0 | 13.0 | 0.00 | 0.00 | 0.00 | 66 | 1011.3 |
| 20260501145008 | 53 | 280 | 4.0 | 12.0 | 0.00 | 0.00 | 0.00 | 67 | 1011.2 |
| 20260501144528 | 52 | 273 | 3.0 | 10.0 | 0.00 | 0.00 | 0.00 | 70 | 1011.3 |
| 20260501144033 | 52 | 174 | 4.0 | 10.0 | 0.00 | 0.00 | 0.00 | 71 | 1011.3 |
| 20260501143544 | 52 | 215 | 3.0 | 8.0 | 0.00 | 0.00 | 0.00 | 75 | 1011.3 |
| 20260501143053 | 51 | 217 | 0.0 | 6.0 | 0.00 | 0.00 | 0.00 | 76 | 1011.1 |
| 20260501142505 | 51 | 157 | 0.0 | 6.0 | 0.00 | 0.00 | 0.00 | 74 | 1011.4 |
| 20260501142018 | 50 | 263 | 1.0 | 11.0 | 0.00 | 0.00 | 0.00 | 74 | 1011.5 |
| 20260501141502 | 50 | 156 | 3.0 | 13.0 | 0.00 | 0.00 | 0.00 | 73 | 1011.5 |